Home > Weather > Cologne > Past weeks

Flag for Germany Past Weather in Cologne, North Rhine-Westphalia, Germany — Yesterday and Last 2 Weeks

Now
70 °F

Broken clouds.


Feels Like: 70 °F
Forecast: 61 / 68 °F
Wind: 8 mph from East

Location: Koeln / Bonn

Current Time: May 29, 2016 at 11:46:24 AM

Latest Report: May 29, 2016 at 11:20 AM


Visibility: N/A

Pressure: 29.71 "Hg

Humidity: 64%

Dew Point: 57 °F

Location of CologneLocation

Past Weather in Cologne — Graph

°F

Cologne Temperature Yesterday

Maximum temperature yesterday: 77 °F (at 4:20 PM)
Minimum temperature yesterday: 57 °F (at 2:50 AM)
Average temperature yesterday: 65 °F

High & Low Weather Summary for the Past Weeks

 TemperatureHumidityPressure
High77 °F (May 28, 4:20 PM)100% (May 23, 3:50 PM)30.12 "Hg (May 23, 3:50 PM)
Low43 °F (May 15, 4:20 AM)34% (May 17, 3:20 PM)29.68 "Hg (May 19, 1:20 AM)
Average57 °F72%29.95 "Hg
* Reported May 14 10:20 AM — May 29 10:20 AM, Cologne, Weather by CustomWeather, © 2016

Note: Actual official high and low records may vary slightly from our data, if they occured in-between our weather recording intervals... More about our weather records

Advertising

Cologne Weather History for the Previous 24 Hours

Scroll right to see more
 ConditionsComfort  
Time TempWeatherWind HumidityBarometerVisibility
10:20 AM
Sun, May 29
68 °FBroken clouds.7 mph73%29.71 "HgN/A
9:50 AM66 °FPartly sunny.5 mph73%29.71 "HgN/A
9:20 AM66 °FPartly sunny.6 mph73%29.71 "HgN/A
8:50 AM66 °FSunny.2 mph73%29.71 "Hg10 mi
8:20 AM64 °FPassing clouds.3 mph73%29.71 "HgN/A
7:50 AM63 °FSunny.2 mph77%29.74 "Hg10 mi
7:20 AM59 °FSunny.2 mph88%29.74 "Hg10 mi
6:50 AM59 °FSunny.1 mph88%29.74 "Hg10 mi
6:20 AM57 °FClear.1 mph94%29.74 "Hg10 mi
5:50 AM57 °FClear.1 mph94%29.77 "Hg10 mi
5:20 AM57 °FClear.2 mph94%29.77 "Hg10 mi
4:50 AM57 °FClear.2 mph94%29.77 "Hg10 mi
4:20 AM57 °FClear.3 mph94%29.77 "Hg10 mi
3:50 AM59 °FPassing clouds.3 mph88%29.77 "HgN/A
3:20 AM59 °FClear.5 mph88%29.77 "Hg10 mi
2:50 AM61 °FLight rain. Clear.6 mph83%29.77 "HgN/A
2:20 AM59 °FClear.5 mph82%29.80 "Hg10 mi
1:50 AM57 °FClear.3 mph88%29.80 "Hg10 mi
1:20 AM59 °FPassing clouds.3 mph88%29.83 "HgN/A
12:50 AM61 °FPassing clouds.5 mph77%29.80 "HgN/A
12:20 AM63 °FClear.7 mph83%29.80 "Hg10 mi
11:50 PM
Sat, May 28
63 °FScattered showers. Passing clouds.2 mph83%29.80 "HgN/A
11:20 PM64 °FScattered showers. Passing clouds.1 mph78%29.83 "HgN/A
10:50 PM63 °FScattered showers. Passing clouds.2 mph88%29.83 "HgN/A
10:20 PM64 °FScattered showers. Scattered clouds.2 mph78%29.83 "HgN/A
9:50 PM64 °FScattered showers. Partly sunny.6 mph83%29.83 "HgN/A
9:20 PM66 °FPartly sunny.9 mph78%29.83 "HgN/A
8:50 PM66 °FLight rain. Broken clouds.5 mph78%29.83 "HgN/A
8:20 PM68 °FLight rain. Partly sunny.1 mph78%29.83 "HgN/A
7:50 PM68 °FLight rain. Partly sunny.1 mph78%29.83 "HgN/A
7:20 PM70 °FPartly sunny.2 mph69%29.83 "HgN/A
6:50 PM72 °FPartly sunny.2 mph65%29.83 "HgN/A
6:20 PM73 °FPartly sunny.2 mph57%29.83 "HgN/A
5:50 PM75 °FBroken clouds.2 mph54%29.83 "HgN/A
5:20 PM75 °FBroken clouds.3 mph50%29.83 "HgN/A
4:50 PM75 °FPartly sunny.2 mph50%29.86 "HgN/A
4:20 PM77 °FPartly sunny.5 mph47%29.86 "HgN/A
3:50 PM75 °FPartly sunny.3 mph44%29.86 "HgN/A
3:20 PM75 °FPartly sunny.2 mph50%29.86 "HgN/A
2:50 PM75 °FScattered clouds.2 mph54%29.89 "HgN/A
2:20 PM75 °FPartly sunny.3 mph61%29.89 "HgN/A
1:50 PM70 °FPartly sunny.2 mph69%29.89 "HgN/A
1:20 PM70 °FPartly sunny.2 mph73%29.92 "HgN/A
12:50 PM66 °FPassing clouds.2 mph83%29.92 "HgN/A
12:20 PM64 °FPartly sunny.3 mph83%29.92 "HgN/A
11:50 AM63 °FPartly sunny.1 mph88%29.92 "HgN/A
11:20 AM63 °FPartly sunny.2 mph88%29.92 "HgN/A
Weather by CustomWeather, © 2016

See weather overviewHow to use our weather pages